#timestamp,LO_Frequency,Hit,StdDev 
1539097215.2,286047000.1,N
1539097235.1,286047002.7,N
1539097236.0,286047002.7,N
1539097255.8,286047000.2,N
1539097275.7,286047001.5,N
1539097295.5,286047002.1,N
1539097315.3,286047002.3,N
1539097335.2,286047002.1,N
1539097355.0,286047001.9,N
1539097355.9,286047001.9,N
1539097375.8,286047002.0,N
1539097395.6,286047001.7,N
1539097415.4,286047001.3,N
1539097435.3,286047002.2,N
1539097455.1,286047000.1,N
1539097475.9,286047002.2,N
1539097495.7,286047002.7,N
1539097515.5,286047002.5,N
1539097535.4,286047002.6,N
1539097555.2,286047001.4,N
1539097575.0,286047002.5,N
1539097575.9,286047002.5,N
1539097595.8,286047001.5,N
1539097615.6,286047001.5,N
1539097635.5,286047001.8,N
1539097655.3,286047003.7,Y
1539097675.1,286047000.2,P
1539097695.9,286047000.2,N
1539097715.7,286046999.9,N
1539097735.5,286047000.2,N
1539097755.4,286047002.8,Y
1539097775.2,286047001.6,P
1539097795.1,286047002.8,P
1539097796.0,286047002.8,N
1539097815.8,286047000.0,N
1539097835.6,286047000.6,N
1539097855.5,286047000.9,N
1539097875.3,286047001.1,N
1539097895.2,286047001.2,N
1539097915.0,286047000.8,N
1539097915.9,286047000.8,N
1539097935.8,286047000.7,N
1539097955.6,286047001.1,N
1539097975.5,286047001.1,N
1539097995.3,286046998.6,N
1539098015.1,286047001.0,N
1539098035.9,286047000.8,N
1539098055.7,286046999.8,N
1539098075.6,286047000.6,N
1539098095.4,286047000.0,N
1539098115.2,286047001.1,N
1539098135.1,286047000.6,N
1539098155.2,286047000.6,N
1539098175.9,286047001.0,N
1539098195.7,286047000.7,N
1539098215.6,286046998.1,N
1539098235.4,286047000.5,N
1539098255.3,286047002.4,N
1539098275.1,286046999.9,N
1539098276.0,286046999.9,N
1539098295.8,286046999.9,N
1539098345.7,286047000.1,E
1539098355.6,286047000.2,N
1539098375.4,286047000.3,P
1539098395.3,286047000.6,P
1539098415.1,286047000.9,Y
1539098435.8,286046998.1,P
1539098455.7,286047001.2,N
1539098475.5,286047000.9,N
1539098495.4,286047000.8,N
1539098515.2,286047000.9,N
1539098535.0,286047000.5,N
1539098535.9,286047000.5,N
1539098555.8,286047000.6,N
1539098575.6,286047000.5,N
1539098595.5,286046999.7,N
1539098615.3,286047002.4,N
1539098635.1,286046999.7,N
1539098655.9,286047002.0,N
1539098675.7,286047004.4,Y
1539098695.5,286047002.1,P
1539098715.4,286047002.4,P
1539098735.2,286047002.3,N
1539098755.1,286047002.1,N
1539098756.0,286047002.1,Y
1539098775.8,286047000.7,P
1539098795.6,286046999.7,N
1539098815.5,286047000.1,N
1539098835.3,286047001.1,N
1539098855.1,286047000.5,N
1539098875.9,286047001.0,N
1539098895.7,286046998.5,N
1539098915.6,286047000.5,N
1539098935.4,286047000.8,N
1539098955.2,286047000.6,N
1539098975.1,286046999.7,N
1539098976.0,286046999.7,N
1539098995.8,286047000.0,N
1539099015.6,286047002.5,Y
1539099035.5,286047000.0,P
1539099055.6,286047001.0,P
1539099075.4,286047000.0,N
1539099095.3,286046998.6,Y
1539099115.1,286046998.4,P
1539099135.8,286046998.7,N
1539099155.7,286046998.9,N
1539099175.5,286046998.5,N
1539099195.3,286047001.0,N
1539099215.2,286047000.4,N
1539099235.0,286046998.4,N
1539099235.9,286046998.4,N
1539099255.8,286046999.4,N
1539099275.6,286046999.0,N
1539099295.4,286046999.5,N
1539099315.4,286046999.3,N
1539099335.2,286046999.5,N
1539099355.1,286046997.0,Y
1539099356.0,286046997.0,P
1539099375.8,286046999.0,N
1539099395.7,286046999.2,N
1539099415.5,286046996.7,Y
1539099435.3,286046998.3,P
1539099455.2,286046999.5,P
1539099475.0,286046999.3,N
1539099475.9,286046999.3,N
1539099495.7,286046998.8,N
1539099515.6,286046998.3,Y
1539099535.4,286046998.5,P
1539099555.3,286047001.0,P
1539099575.1,286047001.0,N
1539099595.8,286047001.0,N
1539099615.7,286047000.4,N
1539099635.5,286046998.3,N
1539099655.4,286046998.7,N
1539099675.2,286046999.0,N
1539099695.0,286046996.6,Y
1539099695.9,286046996.6,P
1539099715.8,286046999.4,N
1539099735.6,286046998.7,N
1539099755.4,286047001.2,N
1539099775.3,286047000.4,N
1539099795.1,286047001.0,N
1539099815.9,286046999.0,N
1539099835.7,286046998.9,N
1539099855.5,286046999.1,N
1539099875.4,286046997.3,N
1539099895.2,286046997.0,N
1539099915.1,286046995.3,Y
1539099916.0,286046995.3,P
1539099935.8,286046997.0,N
1539099955.6,286046996.5,N
1539099975.5,286046999.2,N
1539099995.3,286046999.1,N
1539100015.1,286046997.8,N
1539100035.9,286046994.9,Y
1539100055.7,286046996.5,P
1539100075.6,286046999.5,N
1539100095.4,286046998.3,N
1539100115.2,286046998.5,N
1539100135.1,286046998.2,N
1539100136.0,286046998.2,N
1539100155.8,286047000.8,N
1539100175.7,286046998.1,N
1539100195.5,286047000.5,N
1539100215.3,286046998.5,N
1539100235.2,286046998.5,N
1539100255.0,286046998.2,N
1539100255.9,286046998.2,N
1539100275.8,286046999.2,N
1539100295.6,286046998.4,N
1539100315.4,286047000.8,N
1539100335.3,286047000.5,N
1539100355.1,286047001.0,N
1539100375.8,286047001.1,N
1539100395.7,286046998.1,N
1539100415.5,286046998.5,N
1539100435.4,286047001.1,N
1539100455.2,286046998.2,N
1539100475.0,286046998.9,N
1539100475.9,286046998.9,N
1539100495.8,286046998.1,N
1539100515.6,286047000.6,N
1539100535.4,286047002.4,N
1539100555.3,286047000.9,N
1539100575.1,286047000.6,N
1539100595.9,286046998.6,N
1539100615.7,286046998.3,N
1539100635.5,286046998.5,N
1539100655.4,286046998.4,N
1539100675.2,286046998.3,N
1539100695.0,286046999.5,N
1539100695.9,286046999.5,N
1539100715.8,286046999.3,N
1539100735.6,286046999.1,N
1539100755.5,286046999.2,N
1539100775.3,286046999.3,N
1539100795.1,286046999.5,N
